STARLINK-33909, 63804

Orbit data source: Space-Track

STARLINK-33909, 63804 is a payload satellite owned by SpaceX/Seattle (US) in LEO that was launched on Sun, 04 May 2025 UTC via an FALCON 9 launch vehicle from the Air Force Eastern Test Range (AFETR). Payload-class satellites include a variety of spacecraft equipped with specific instruments for various scientific and technological missions. These include communications satellites like Starlink; space stations such as the ISS; scientific satellites like the Hubble; Earth observation satellites from companies like Planet Labs, Umbra, and HawkEye 360; GPS; miniature CubeSats for education and research; and military/defense satellites.

Loading next visibility...
Identifier
63804, 2025-092A
Orbit
LEO
Country
Flag of USUS
Related business
Manufacturer
SpaceX/Seattle
Mission
Operational Commercial Communications
Bus & Motor
STARLINK V2MO, Unknown motor
Mass
575 kg wet, ~530 kg dry
Launch date (UTC)
2025-05-04 (9 months ago)
Launch vehicle
FALCON 9
Launch site
Air Force Eastern Test Range (AFETR)
Object type
Payload
Rocket body
Debris
Shape & HBR
Box + 2 Pan, 17.7 m
Radar Cross Section
36.964 m², Large (>1 m²)

Expand to show TLE details & history
Last TLE update: 22 hours ago

TLE from 22 hours ago
0 STARLINK-33909
1 63804U 25092A   26034.25642911  .00036021  00000-0  13111-2 0  9995
2 63804  43.0002   7.4310 0001100 268.5857  91.4868 15.27606026 43345
Epoch: 2026-02-03T06:09Z
TLE epoch observation values (Epoch: 2026-02-03T06:09:15.475Z)
Latitude
-0.00005°
Longitude
141.6765°
Altitude
482.766 km
Speed
7.626 km/s
True Right ascension
00h 29m 43s
True Declination
0° 00' 00"
Sunlit
Object was in daylight at epoch
Visualization orbit readout
Latitude
Unknown
Longitude
Unknown
Altitude
Unknown
Speed
Unknown
Apparent Right ascension
Unknown
Apparent Declination
Unknown
Sunlit
N/A
Visualization observer readout
Local Sidereal Time
05:39:31
Azimuth
Unknown
Elevation
Unknown
Doppler factor
Unknown
Orbital elements
Apogee altitude
485.671 km
Perigee altitude
484.161 km
Semi-major axis
6,863.053 km
Eccentricity
0.00011
Inclination
43.0002°
RAAN
7.431°
Arg. of periapsis
268.5857°
True anomaly
91.4994°
Mean anomaly
91.4868°
Eccentric anomaly
91.4931°
Mean motion
3.8174 °/min
Orbital period
94.31 mins
BSTAR
0.0013111
Loading maneuver chart data...
Computing Atmospheric mass density...
Loading historical data...
Loading historical data...
Loading historical data...
Loading historical data...
Loading historical data...
Loading historical data...
Loading historical data...

Documentation

Showing up to 5 results
|